Weather History for Worland, WY

Change the Weather History Date:

Monday, February 25, 2013

  Actual Average Record
Temperature  
Mean Temperature 19 °F 28 °F  
Max Temperature 35 °F 42 °F 64 °F (1999)
Min Temperature 2 °F 15 °F -25 °F (2003)
Degree Days  
Heating Degree Days 46 37  
Month to date heating degree days 1128 1047  
Since 1 July heating degree days 5454 5895  
Cooling Degree Days 0 0  
Month to date cooling degree days 0 0  
Year to date cooling degree days 0 0  
Moisture  
Dew Point 13 °F    
Average Humidity 69    
Maximum Humidity 91    
Minimum Humidity 47    
Precipitation  
Precipitation 0.00 in 0.01 in 0.13 in (1980)
Month to date precipitation 0.22 0.17  
Year to date precipitation 0.35 0.40  
Sea Level Pressure  
Sea Level Pressure 30.07 in    
Wind  
Wind Speed 5 mph (SSE)    
Max Wind Speed 13 mph    
Max Gust Speed 16 mph    
Visibility 10 miles    
Events      
T = Trace of Precipitation, MM = Missing Value Source: NWS Daily Summary

Daily Weather History Graph

Daily Weather History Graph

Search for Another Location

Airport:

Trip Planner

Search our weather history database for the weather conditions in past years. The results will help you decide how hot, cold, wet, or windy it might be!

Date:

Astronomy

Feb. 25, 2013 Rise Set
Actual Time 6:54 AM MST 5:55 PM MST
Civil Twilight 6:25 AM MST 6:24 PM MST
Nautical Twilight 5:52 AM MST 6:57 PM MST
Astronomical Twilight 5:19 AM MST 7:31 PM MST
Moon 6:14 PM MST (2/25) 6:25 AM MST (2/25)
Length of Visible Light 11h 58m
Length of Day
11h 00m
Full, 100% of the Moon is Illuminated
Feb 25
Full
Feb 25
Full
Mar 4
Last Quarter
Mar 11
New
Mar 19
First Quarter

Hourly Weather History & Observations

Time (MST) Temp. Windchill Dew Point Humidity Pressure Visibility Wind Dir Wind Speed Gust Speed Precip Events Conditions
12:53 AM 16.0 °F 8.8 °F 8.1 °F 71% 30.19 in 10.0 mi ESE 4.6 mph - N/A   Clear
1:53 AM 14.0 °F 2.9 °F 7.0 °F 74% 30.19 in 10.0 mi SE 8.1 mph - N/A   Clear
2:53 AM 8.1 °F 1.4 °F 3.9 °F 83% 30.19 in 10.0 mi WSW 3.5 mph - N/A   Clear
3:53 AM 9.0 °F 0.6 °F 6.1 °F 88% 30.19 in 10.0 mi SSW 4.6 mph - N/A   Clear
4:53 AM 9.0 °F 0.6 °F 5.0 °F 84% 30.18 in 10.0 mi South 4.6 mph - N/A   Clear
5:53 AM 6.1 °F -2.8 °F 3.0 °F 87% 30.21 in 10.0 mi SW 4.6 mph - N/A   Clear
6:53 AM 5.0 °F -2.1 °F 1.9 °F 87% 30.22 in 10.0 mi South 3.5 mph - N/A   Clear
7:53 AM 8.1 °F - 5.0 °F 87% 30.21 in 10.0 mi Calm Calm - N/A   Clear
8:53 AM 12.0 °F - 7.0 °F 80% 30.17 in 10.0 mi Calm Calm - N/A   Clear
9:53 AM 18.0 °F 9.8 °F 10.9 °F 74% 30.14 in 10.0 mi SSW 5.8 mph - N/A   Clear
11:53 AM 30.0 °F 21.7 °F 14.0 °F 51% 30.04 in 10.0 mi SSE 9.2 mph - 0.00 in   Clear
12:53 PM 30.9 °F 25.2 °F 15.1 °F 52% 30.00 in 10.0 mi South 5.8 mph - N/A   Clear
1:53 PM 33.1 °F - 16.0 °F 50% 29.98 in 10.0 mi Calm Calm - N/A   Clear
2:53 PM 33.1 °F - 15.1 °F 48% 29.98 in 10.0 mi Calm Calm - N/A   Clear
3:53 PM 33.1 °F 28.7 °F 18.0 °F 54% 29.97 in 10.0 mi South 4.6 mph - N/A   Clear
4:53 PM 32.0 °F 23.6 °F 19.9 °F 61% 29.94 in 10.0 mi South 10.4 mph - N/A   Clear
5:53 PM 28.0 °F 19.3 °F 19.9 °F 72% 29.94 in 10.0 mi SE 9.2 mph - N/A   Clear
6:53 PM 28.9 °F 21.1 °F 19.9 °F 69% 29.95 in 10.0 mi SE 8.1 mph - N/A   Clear
7:53 PM 28.0 °F 20.8 °F 19.9 °F 72% 29.96 in 10.0 mi SSE 6.9 mph - N/A   Mostly Cloudy
8:53 PM 27.0 °F 21.6 °F 21.9 °F 81% 29.97 in 10.0 mi NW 4.6 mph - N/A   Overcast
9:53 PM 26.1 °F 21.9 °F 19.9 °F 78% 29.97 in 10.0 mi East 3.5 mph - N/A   Overcast
10:53 PM 26.1 °F 18.4 °F 19.9 °F 78% 29.96 in 10.0 mi East 6.9 mph - N/A   Overcast
11:53 PM 24.1 °F - 21.0 °F 88% 29.96 in 10.0 mi Calm Calm - N/A   Mostly Cloudy